Location: Mason Neck State Park
(38.6428°N, 77.1981°W)
Time: 20:01:04
(UTC-04:00)

ISS - Visible Passes

Search period start: 20 September 2014 00:00
Search period end: 30 September 2014 00:00
Orbit: 413 x 417 km, 51.6° (Epoch: 20 September)

Date Brightness Start Highest point End Pass type
(mag) Time Alt. Az. Time Alt. Az. Time Alt. Az.
20 Sep -0.6 04:55:18 13° N 04:55:18 13° N 04:56:26 10° NNE visible
24 Sep -0.7 06:29:07 10° NNW 06:31:19 16° NNE 06:33:30 10° ENE visible
25 Sep -0.5 05:40:30 10° NNW 05:42:03 13° NNE 05:43:36 10° NE visible
26 Sep -0.2 04:52:16 10° N 04:52:42 10° N 04:53:21 10° NNE visible
26 Sep -1.5 06:27:15 10° NNW 06:30:15 30° NNE 06:33:13 10° E visible
27 Sep -0.9 05:38:25 10° NNW 05:41:00 21° NNE 05:43:35 10° ENE visible
28 Sep -0.6 04:51:26 15° NNE 04:51:39 15° NNE 04:53:43 10° ENE visible
28 Sep -3.1 06:25:29 10° NW 06:28:49 77° NE 06:32:07 10° SE visible
29 Sep -2.2 05:37:36 19° NNW 05:39:36 43° NE 05:42:47 10° ESE visible
